Location: Unspecified
(47.1121°N, 116.3927°W)
Time: 02:46:41
(UTC-07:00)

ISS - Pass Details

Date: 24 May 2019
Orbit: 407 x 418 km, 51.6° (Epoch: 24 June)

Event Time Altitude Azimuth Distance (km) Brightness Sun altitude
Rises 01:18:12 0° 294° (WNW) 2,366 0.2 -21.7°
Reaches altitude 10° 01:20:20 10° 288° (WNW) 1,501 -0.9 -21.6°
Enters shadow 01:20:46 13° 286° (WNW) 1,331 -1.2 -21.6°
